RH
73 72 66 61 57 59 61 62 67 71 68 63 60 58 58 58 59 61 69 77 77 74 69 65 67 71 68 59 53 57 65 61 52 54 63 69 70 68 67 66 65 67 70 72 73 75 77 80 81 83 85 84 83 81 81 84 84 83 83 84 88 90 86 84 85 81 77 74 76 83 86 80 78 82 81 81 81 74 68 61 53 56 61 58 58
73 68 65 65 63 59 56 55 59 66 70 67 62 61 58 58 61 64 68 76 78 69 58 56 65 77 83 77 63 58 63 67 62 56 57 59 60 61 62 60 59 64 72 79 84 85 85 84 82 83 87 88 86 84 86 89 87 83 83 85 88 90 89 85 84 85 81 77 77 83 88 83 75 79 82 79 79 78 72 65 58 56 60 59 59
72 65 62 66 68 63 57 53 54 57 63 66 64 60 58 57 59 62 65 74 80 71 59 60 67 77 86 86 76 69 70 78 80 70 62 60 57 59 61 58 55 61 69 76 78 79 81 84 86 86 88 88 88 89 90 88 85 83 84 87 88 88 91 87 84 88 87 82 79 81 88 90 79 74 78 80 80 78 76 75 68 61 58 56 58
69 65 65 70 72 69 63 56 54 52 53 59 61 60 60 58 56 59 62 68 76 72 65 70 76 78 82 84 80 77 77 82 87 82 76 73 69 68 70 67 62 62 67 70 71 73 78 82 87 89 89 88 88 89 90 88 87 88 88 88 86 86 88 86 84 87 87 84 81 78 82 90 88 80 78 84 84 77 77 78 73 67 62 57 58
64 64 67 71 73 75 70 63 61 56 50 50 53 59 65 63 60 64 66 68 75 75 68 71 80 80 77 74 75 79 81 82 86 87 86 83 82 82 81 78 77 76 76 76 73 73 74 77 81 84 86 86 85 84 85 84 83 85 88 88 85 84 85 85 86 88 88 86 85 81 79 85 93 87 78 85 91 83 79 78 74 74 73 69 69
59 63 69 68 69 73 72 70 69 65 56 50 49 56 64 68 70 76 82 83 82 81 76 72 75 76 72 68 70 77 83 83 84 87 87 86 89 89 83 79 80 80 78 75 72 70 68 70 75 78 78 77 75 74 74 73 72 74 81 83 82 84 87 88 88 88 87 88 89 88 85 85 91 89 80 88 97 90 84 86 82 80 83 84 82
55 65 76 71 64 64 64 65 66 65 62 56 54 59 67 75 79 77 75 72 68 71 79 81 79 77 74 73 72 75 78 80 81 83 85 86 88 86 82 79 78 77 74 71 69 69 71 74 77 75 70 66 65 64 64 64 63 63 67 70 73 77 81 85 89 88 86 87 89 89 86 82 86 90 87 90 95 93 92 92 83 80 90 94 89
53 60 74 79 75 66 58 56 58 61 64 63 66 73 78 81 78 67 60 59 59 60 63 70 79 83 82 79 77 75 75 77 79 80 81 83 83 81 79 76 72 70 67 65 68 73 77 80 80 77 76 74 71 65 61 60 58 55 55 57 61 66 71 77 83 83 83 84 87 87 86 85 89 94 94 91 92 95 96 91 83 83 94 97 92
51 52 59 70 81 81 67 56 56 59 65 74 81 84 83 77 66 59 59 63 62 55 51 58 72 81 82 80 79 76 75 76 77 78 78 78 77 75 74 70 68 69 69 69 73 77 79 78 77 77 80 82 72 54 43 45 49 49 46 44 44 48 53 60 67 72 75 78 83 88 88 89 91 93 96 96 92 90 90 91 91 91 95 96 92
47 47 49 52 70 86 77 61 59 62 67 78 85 85 84 76 62 56 61 66 63 58 63 74 79 78 80 81 79 77 75 75 77 77 78 77 73 73 72 69 67 67 68 69 71 74 76 76 76 78 80 80 73 60 55 59 64 66 61 54 51 48 44 43 47 54 62 67 75 86 91 91 88 88 93 97 92 85 80 82 86 91 97 97 91
52 48 47 47 61 81 80 64 61 66 68 71 76 78 80 78 70 64 67 72 68 60 66 82 86 83 83 81 77 76 75 76 77 79 80 78 75 74 71 68 65 63 63 68 73 77 77 75 75 76 76 77 77 75 74 74 75 77 75 72 70 66 59 51 46 45 50 56 63 73 83 87 86 84 87 91 92 91 87 81 82 90 96 96 91
56 55 54 54 59 73 78 70 67 71 71 68 73 78 81 82 81 76 74 77 74 62 62 77 86 86 84 80 76 76 76 75 77 80 77 73 75 74 69 69 70 68 69 73 75 75 74 73 73 73 73 75 76 77 76 76 78 81 82 82 83 82 79 73 65 59 58 58 58 61 67 75 81 83 83 85 87 89 88 84 83 87 90 91 93
55 61 61 58 56 60 70 74 76 81 79 72 74 80 83 83 82 80 80 83 79 66 60 71 82 84 83 81 78 75 74 73 75 76 70 65 68 69 66 66 64 61 67 73 75 75 74 73 72 72 74 75 74 75 76 77 82 87 89 89 89 90 91 89 85 80 76 72 68 64 61 63 68 71 73 78 84 83 78 79 81 82 83 86 92
56 59 54 50 53 59 66 71 76 82 81 74 72 74 77 78 77 77 82 84 78 66 60 67 77 80 80 81 80 76 74 75 75 73 66 60 62 60 56 54 51 47 53 61 67 70 68 66 68 71 75 75 72 74 76 77 80 85 91 95 96 94 93 92 90 90 90 89 86 80 73 69 67 65 62 65 73 73 70 73 78 81 84 83 84
53 51 47 47 52 57 60 61 66 73 74 72 69 66 65 67 67 69 72 75 73 70 68 68 70 72 74 79 83 78 74 75 75 69 63 60 59 56 52 51 49 45 43 46 51 55 58 65 72 76 78 78 76 76 77 78 79 80 81 87 92 93 92 92 93 93 93 93 92 88 82 77 74 74 71 69 72 74 74 77 80 82 89 92 86
51 50 50 49 47 49 51 54 58 62 65 67 65 58 52 51 55 59 64 69 73 76 77 73 69 67 69 77 85 83 76 76 74 67 63 63 60 56 53 49 45 43 42 44 46 52 61 71 75 75 73 72 72 71 70 72 77 79 79 80 84 88 88 85 83 83 84 85 88 88 86 81 75 73 73 74 76 79 82 87 88 85 89 96 94
52 50 50 48 43 45 50 54 56 57 58 60 60 56 53 51 53 58 65 72 75 75 75 75 71 69 69 72 80 82 79 77 72 65 66 67 61 54 50 45 43 44 45 47 48 55 66 71 70 68 67 67 69 68 66 65 69 74 76 76 79 82 82 80 79 80 83 89 92 92 93 92 86 82 79 74 71 76 81 82 82 84 89 94 97
53 50 47 46 43 44 48 51 52 53 54 54 55 60 66 69 68 66 66 68 69 70 74 77 77 77 76 75 78 81 80 77 71 65 67 67 59 51 47 44 45 47 46 49 56 63 69 70 66 65 64 65 68 68 65 65 66 69 71 71 74 76 75 79 85 82 78 84 91 92 91 89 87 84 81 74 69 78 89 84 76 81 89 92 93
52 51 48 45 42 43 47 49 50 51 54 56 56 58 65 75 80 79 73 68 68 73 79 81 82 85 87 85 83 81 78 74 69 66 66 65 56 50 48 46 47 48 49 56 67 70 68 65 62 60 57 58 61 62 63 65 66 69 72 72 74 75 71 70 73 67 60 64 71 74 73 74 76 74 72 70 68 72 83 89 89 90 91 90 89
47 49 49 46 43 42 45 47 49 53 57 60 62 62 64 71 79 83 82 81 81 82 83 83 86 91 95 91 84 79 76 74 72 68 66 65 59 51 48 48 48 48 53 65 72 67 62 60 58 57 56 57 60 62 63 64 65 69 74 76 77 78 76 73 69 61 55 51 51 56 61 64 67 67 66 67 68 71 78 85 90 94 94 93 91
49 49 50 49 48 47 48 49 52 59 65 66 67 68 69 71 76 81 85 88 90 90 88 87 89 92 96 92 84 78 77 76 73 68 66 67 64 56 49 48 49 49 55 67 70 62 58 58 57 56 54 53 58 61 61 62 65 69 75 77 77 76 75 75 72 64 55 47 47 56 64 66 71 77 79 79 79 84 91 92 89 90 92 94 94
53 51 52 50 46 46 48 48 53 65 73 73 71 73 74 75 78 84 88 90 91 91 91 91 92 94 93 88 81 78 77 76 74 70 68 68 67 61 53 49 48 49 54 64 69 64 61 62 60 58 56 54 56 60 62 62 64 67 73 76 76 76 74 74 73 65 52 46 52 63 68 73 82 90 93 94 94 93 94 95 95 95 95 95 97
49 49 53 52 48 48 51 51 58 71 78 76 75 76 78 79 81 85 87 85 85 89 91 90 92 96 93 85 81 82 81 80 79 75 71 70 69 67 61 54 49 49 51 58 63 62 62 63 60 57 58 59 60 62 64 64 63 65 69 71 72 74 73 71 69 61 50 50 60 68 71 79 88 91 90 94 97 95 92 93 96 98 99 99 99
51 50 52 53 53 55 57 59 64 70 71 72 75 76 76 79 83 85 83 78 77 86 94 94 95 98 96 88 84 85 84 83 82 78 74 73 72 70 67 58 50 49 53 57 60 61 62 61 57 54 56 59 61 63 64 65 67 69 70 72 74 75 73 67 62 56 53 55 61 67 76 86 93 93 93 92 91 90 91 91 90 93 97 98 97
56 53 52 52 52 54 55 56 58 58 57 62 71 75 76 79 83 86 85 82 80 83 89 93 95 95 95 93 88 85 84 85 83 81 81 80 75 71 68 62 55 53 57 62 65 65 63 57 52 52 53 52 53 56 55 55 58 62 65 70 71 70 66 62 58 56 57 58 62 72 85 91 89 86 85 87 88 89 89 86 81 82 87 90 91
58 56 55 53 51 50 49 48 48 49 51 56 64 71 76 77 78 82 87 89 86 78 73 76 80 82 89 96 91 83 83 84 80 78 80 81 77 73 70 65 59 59 66 73 71 64 58 52 50 53 55 54 54 56 55 54 53 52 54 57 57 56 56 56 56 60 62 62 68 81 89 88 85 83 81 83 86 86 86 85 81 78 79 84 86
61 57 57 55 52 48 45 44 44 45 48 53 59 66 73 74 74 78 84 89 91 81 67 65 72 79 88 96 92 84 83 83 79 77 79 81 81 79 73 67 63 65 72 74 66 57 53 52 54 57 61 65 67 65 65 68 69 65 60 53 47 48 55 58 59 65 69 69 75 86 89 87 86 85 82 82 83 82 84 92 93 88 87 90 91
63 59 58 57 55 52 48 46 47 48 50 55 59 65 72 75 73 73 77 83 87 83 71 67 76 85 89 91 91 88 88 87 83 80 78 76 75 75 71 67 65 66 68 64 58 55 55 55 58 64 69 72 71 67 66 70 74 76 73 62 51 48 56 64 68 71 72 71 73 81 86 85 84 82 79 79 81 82 88 97 100 97 97 98 96
60 59 58 57 55 52 50 48 47 48 52 56 59 64 72 76 73 69 71 76 79 79 74 72 77 85 87 88 88 89 91 90 85 76 70 68 68 67 65 63 62 61 59 56 56 57 59 61 68 73 72 69 67 66 68 71 74 77 80 78 70 65 68 74 75 73 72 73 77 83 86 84 83 79 75 74 76 79 88 97 100 99 100 101 100
58 56 56 58 56 52 52 52 49 47 48 52 57 63 69 71 69 67 70 73 73 72 72 69 71 78 85 85 83 81 81 80 75 68 63 62 63 62 60 59 59 59 56 55 58 61 63 66 71 71 67 65 66 66 67 70 73 75 78 80 80 78 78 79 77 73 71 73 76 80 80 81 81 79 76 76 76 78 85 95 99 99 99 100 100
57 53 51 55 58 57 57 57 54 50 48 47 51 59 66 68 67 66 68 70 70 70 72 74 76 81 84 80 75 72 71 70 67 64 62 60 59 59 59 59 59 60 57 57 60 63 61 59 61 64 65 65 66 67 67 69 71 74 76 78 78 77 77 76 74 71 69 68 69 70 73 78 82 80 77 77 76 76 83 92 95 96 98 100 100
53 50 46 48 53 56 57 58 57 55 53 49 47 52 59 64 64 63 64 68 71 74 77 81 83 83 80 75 70 68 68 67 65 62 59 58 58 58 60 60 59 60 60 60 61 60 55 53 57 61 64 64 63 64 67 69 70 73 75 76 75 75 74 73 73 72 70 68 67 68 71 78 80 77 74 75 74 75 85 94 92 89 91 92 94
48 47 47 46 47 49 52 57 57 56 56 56 52 49 52 56 58 59 61 64 68 74 78 81 80 78 75 72 70 67 64 64 63 60 57 57 57 57 59 60 59 60 61 62 61 56 51 50 53 55 58 64 65 65 66 69 72 75 75 74 72 72 71 72 72 73 72 70 67 65 65 68 70 68 69 73 72 72 84 97 95 86 82 80 82
45 45 45 45 45 46 49 55 59 58 57 59 58 56 54 52 51 53 57 59 62 68 72 74 73 71 68 68 68 67 64 62 60 57 55 56 57 59 58 57 57 58 59 59 58 54 49 48 49 51 57 65 67 66 67 70 72 73 72 72 71 72 73 73 72 70 67 65 63 62 60 60 62 65 68 74 74 71 80 96 98 86 79 77 77
45 44 43 42 43 45 46 49 54 56 55 55 57 58 59 57 53 50 52 55 57 60 61 60 59 59 59 60 62 63 62 59 55 52 53 58 62 63 60 56 56 57 57 57 56 53 49 47 48 50 56 62 65 66 68 69 70 70 70 70 71 73 75 74 70 66 63 60 59 60 59 58 64 69 70 71 71 69 77 93 98 88 80 79 80
53 47 45 44 45 50 55 58 58 58 56 55 56 56 59 63 60 53 49 49 51 53 54 53 51 51 52 54 55 56 56 55 52 52 56 61 64 64 61 57 56 57 57 57 57 54 49 48 48 50 53 59 64 66 67 67 68 69 70 70 71 72 73 72 70 67 62 57 56 59 60 60 62 65 64 65 68 71 78 88 92 88 83 82 83
69 59 54 53 54 60 68 72 72 70 65 60 57 56 59 64 62 56 52 50 49 50 52 54 55 55 54 53 53 52 52 53 54 57 61 65 66 66 64 60 58 59 58 57 57 54 49 49 51 52 53 58 63 65 66 67 68 68 69 68 68 69 71 71 71 68 62 55 53 56 60 61 62 62 61 64 70 76 79 79 79 82 85 85 83
81 72 65 65 66 69 72 73 73 76 75 68 62 60 62 62 59 56 55 53 50 49 50 50 51 53 53 52 52 51 50 52 55 58 61 63 65 65 63 61 59 59 59 59 58 57 54 53 54 53 53 57 62 62 61 63 66 68 68 65 63 63 67 69 70 69 65 59 56 57 60 62 64 63 62 62 66 73 78 78 75 76 82 84 82
85 80 75 74 75 77 79 78 76 76 77 75 71 68 66 62 59 59 60 57 52 50 50 48 48 49 50 51 52 52 52 52 52 52 54 56 57 57 57 56 56 57 57 59 60 60 59 57 55 53 51 55 60 61 58 58 61 63 65 63 60 58 62 67 70 70 68 63 59 59 61 63 65 64 62 60 62 65 70 75 75 73 75 79 80
77 80 78 76 76 76 78 80 80 77 73 71 70 70 68 65 64 65 65 60 54 52 51 49 49 50 50 49 50 52 53 53 52 51 51 51 51 52 51 50 51 52 53 55 57 57 55 54 53 52 51 53 58 58 55 53 55 57 59 60 57 55 58 65 71 72 70 64 59 59 62 64 66 66 63 60 60 60 64 70 74 72 71 71 72
70 78 80 78 76 77 78 80 82 80 76 70 66 65 65 67 70 72 69 62 56 54 53 51 50 50 50 49 48 49 50 51 51 51 51 50 50 50 48 46 47 48 49 51 53 54 52 52 53 54 52 51 52 52 51 51 52 54 55 56 56 55 56 61 66 70 71 66 61 61 63 65 66 67 65 62 60 60 61 64 68 73 76 72 66
62 69 76 77 77 78 80 81 82 82 81 77 71 67 65 66 70 74 72 66 59 55 54 53 52 50 48 48 47 47 48 49 48 49 50 51 50 49 48 47 46 46 46 47 49 50 51 52 53 53 52 50 49 48 48 50 51 52 54 56 57 57 57 58 61 67 71 69 65 63 65 65 64 65 66 65 63 62 60 59 62 71 78 73 62
64 68 76 81 80 80 83 85 84 84 86 85 82 77 72 67 65 65 66 67 65 62 58 55 53 51 48 47 47 47 48 48 48 48 51 52 51 50 49 47 45 43 44 45 46 48 50 51 51 50 50 49 47 46 46 48 50 53 55 57 57 58 59 59 60 63 68 71 69 67 66 64 62 63 65 66 66 64 61 62 65 69 70 68 62
74 76 78 79 78 80 83 83 81 78 78 81 84 85 82 77 70 65 63 64 65 64 62 57 53 52 50 47 46 48 49 47 47 48 49 51 51 49 46 44 43 43 45 46 46 47 50 50 49 48 48 48 46 45 45 46 48 51 55 58 60 61 60 59 59 61 65 69 70 68 64 61 60 62 63 65 67 66 62 63 69 69 65 65 66
72 73 74 74 74 75 75 76 76 73 69 71 77 84 85 83 78 73 70 67 65 66 67 63 57 54 52 49 46 47 48 46 46 47 49 49 49 47 43 43 46 49 50 49 49 50 51 49 46 45 46 47 46 45 46 46 46 48 52 57 62 62 61 60 60 61 63 67 67 64 61 58 58 60 62 63 67 68 63 61 67 70 66 67 70
63 63 66 69 72 73 72 73 76 75 70 67 69 75 80 83 82 79 77 75 70 68 69 67 61 56 54 52 48 45 45 44 45 48 49 49 48 46 44 45 47 48 47 47 49 50 48 44 41 40 42 45 45 46 46 46 47 47 50 55 60 61 61 63 63 60 61 65 65 60 57 57 56 57 60 62 65 67 63 59 61 65 63 64 67
57 60 66 71 75 77 76 76 76 75 72 68 66 66 69 74 77 77 77 77 75 71 69 68 64 60 57 56 51 46 44 43 44 45 47 46 44 44 45 45 44 43 42 43 45 45 42 40 39 39 41 44 46 46 46 47 48 49 50 55 59 60 59 62 64 60 59 63 64 61 58 57 57 57 59 62 64 66 63 59 58 59 60 60 61
62 67 72 78 82 84 82 78 75 74 74 72 69 66 65 66 70 73 75 75 75 73 70 68 66 63 62 61 57 51 47 45 44 44 45 45 45 46 47 46 45 44 43 43 44 44 43 42 41 40 41 43 44 45 47 49 50 50 51 55 61 61 57 57 59 60 59 61 63 62 59 58 58 60 61 62 63 63 63 61 59 58 59 60 60
64 65 68 72 78 84 84 78 70 67 71 74 75 74 72 70 73 77 78 75 73 73 72 69 68 65 64 62 60 57 54 52 48 45 45 46 47 48 49 49 48 46 46 46 46 46 47 46 43 41 42 44 46 47 49 50 50 51 52 55 61 63 60 53 51 54 58 59 59 59 59 60 60 61 63 63 62 60 61 61 59 57 58 59 60
59 60 63 67 71 77 83 81 72 64 64 70 74 75 75 74 76 81 83 82 79 75 72 69 67 65 64 64 61 57 56 57 55 51 49 48 48 50 51 52 51 49 48 47 47 47 48 48 47 45 46 48 50 51 52 52 52 53 54 56 59 63 64 57 48 46 53 60 60 58 59 62 63 62 64 65 63 60 58 59 59 56 56 58 59
56 56 59 63 66 71 78 83 80 71 65 65 67 69 69 71 74 79 84 88 85 77 72 72 72 69 69 70 67 60 56 57 59 58 56 53 51 51 53 53 53 52 50 48 47 47 49 49 50 50 51 51 53 54 55 55 55 56 57 60 60 61 63 62 52 42 45 57 64 62 60 63 66 65 64 66 66 62 58 57 58 58 58 59 60
Wind_Speed
26 25 23 22 23 25 26 24 24 24 24 24 24 23 23 22 22 21 20 20 20 20 20 20 19 18 18 18 18 18 17 17 17 17 17 16 15 14 14 13 13 13 13 13 13 12 12 12 12 11 12 13 14 14 14 13 14 14 15 17 18 19 19 20 22 22 20 18 17 18 18 17 14 11 9 12 17 17 18 19 17 15 17 18 18
27 26 24 23 23 24 25 24 25 25 26 26 25 25 24 23 22 21 21 21 21 22 22 21 19 16 15 16 17 18 18 17 17 17 18 18 17 16 16 15 14 13 13 13 12 12 12 13 13 12 13 14 14 14 13 13 14 15 15 16 17 18 17 18 19 21 20 19 17 16 18 18 16 15 13 13 14 15 18 20 19 17 18 19 19
26 26 26 26 24 24 24 24 25 25 26 27 26 26 25 24 24 23 22 22 22 22 21 20 18 16 15 16 17 17 17 16 16 18 18 18 18 17 17 17 16 16 15 14 13 12 12 12 11 11 13 14 14 13 13 14 15 16 16 16 18 18 17 16 17 19 21 20 19 17 17 17 15 15 14 13 13 14 17 20 21 19 20 20 20
25 26 27 27 26 25 26 26 26 26 27 27 26 26 26 26 26 24 23 22 22 22 20 18 17 17 17 17 17 17 17 16 17 18 18 18 18 17 16 17 17 15 14 13 12 12 13 12 9 9 10 11 12 12 12 13 14 15 15 16 18 18 19 19 18 19 20 20 20 19 18 18 16 15 15 14 14 14 16 20 21 21 21 20 20
23 26 27 28 27 27 27 27 27 26 27 27 26 26 26 26 26 24 23 24 23 21 20 19 18 19 19 19 18 18 18 17 17 17 17 16 16 16 16 16 13 12 13 11 10 14 17 15 12 12 11 11 12 12 12 13 15 15 16 16 17 18 19 20 19 19 19 19 19 19 18 18 19 17 15 16 17 17 18 21 22 23 23 22 22
23 25 27 28 28 28 28 29 29 28 27 26 26 26 26 25 25 24 24 24 22 20 19 20 20 21 21 21 20 19 18 17 17 17 16 16 15 15 15 15 13 13 15 13 12 16 18 16 14 15 15 16 17 17 17 18 19 19 18 18 17 17 17 18 19 19 20 20 19 19 17 17 20 19 16 16 16 17 21 24 23 23 24 23 24
26 25 27 29 30 31 31 30 30 28 27 26 26 26 26 25 25 26 25 24 22 20 20 21 21 22 22 21 20 19 18 17 17 17 18 17 15 14 15 16 16 17 18 17 17 17 16 14 15 16 17 18 19 20 21 22 23 22 22 22 21 19 18 18 18 18 19 20 21 20 20 19 20 20 17 16 15 17 21 23 22 23 25 24 25
29 27 27 29 31 32 32 30 30 29 27 26 26 26 26 26 27 26 26 26 26 24 23 23 21 22 22 21 19 19 19 18 18 19 19 17 16 17 16 15 15 17 17 16 15 14 13 13 14 14 14 15 16 19 20 22 23 24 24 25 25 24 24 22 21 20 20 20 20 20 20 19 19 18 16 16 15 15 19 21 21 24 26 26 26
29 30 30 30 30 32 33 31 29 29 29 28 28 28 28 28 26 26 26 26 26 25 24 23 22 23 23 21 19 19 19 19 19 18 18 16 15 15 14 12 12 12 11 11 12 13 12 12 13 13 12 13 16 18 19 19 20 22 23 24 26 27 28 28 26 24 23 22 20 19 18 18 18 17 16 16 15 14 15 18 21 25 28 27 27
26 29 31 31 31 32 33 32 29 27 28 29 29 29 30 29 26 27 27 26 25 25 23 23 24 23 23 21 19 18 18 19 19 17 17 18 16 14 14 16 16 14 14 14 14 13 12 12 12 12 13 14 17 17 16 16 17 18 20 22 23 25 27 29 30 29 26 25 22 19 17 16 16 16 16 16 16 14 13 16 19 23 25 26 26
23 23 24 27 30 32 33 32 29 27 28 29 29 30 30 30 28 28 27 27 27 26 25 25 24 23 21 19 18 19 20 21 21 20 19 19 17 17 16 17 17 16 15 14 12 12 12 12 12 13 14 15 16 17 16 16 16 17 18 20 19 20 21 23 26 28 28 27 26 22 18 16 16 16 15 16 16 14 12 15 18 21 22 21 22
21 20 18 20 24 28 31 32 29 29 28 27 28 30 31 31 31 29 29 29 30 28 27 27 25 24 23 21 21 23 24 25 25 24 22 20 19 18 16 14 14 12 11 11 12 12 12 12 13 15 15 16 16 17 17 16 16 16 17 17 15 15 15 16 18 20 23 25 26 25 23 20 18 16 14 15 16 16 15 14 16 19 20 19 20
20 21 19 17 17 20 25 28 28 29 28 24 24 28 31 32 32 32 31 31 30 29 28 27 26 26 26 26 26 27 27 27 26 25 23 21 19 19 17 16 15 13 12 12 13 13 13 15 16 17 17 16 16 17 17 17 16 16 16 17 16 15 15 13 13 15 17 19 21 23 24 23 22 21 20 19 18 19 19 18 17 18 18 17 18
19 20 19 17 14 15 19 23 24 27 27 24 23 26 28 29 30 31 32 31 30 29 29 28 28 28 28 29 30 29 28 28 27 25 23 22 22 21 20 19 18 16 15 15 15 15 16 17 18 18 19 19 17 17 18 18 18 17 16 16 15 15 15 13 13 13 13 15 17 19 20 21 22 23 23 23 22 22 22 21 19 20 19 18 18
20 19 17 16 15 16 18 20 21 23 24 23 22 23 24 25 25 27 28 29 30 31 30 30 30 30 30 30 32 32 31 30 29 26 23 24 24 22 20 19 17 16 17 17 17 17 17 17 18 19 20 19 18 17 18 19 20 20 20 19 16 14 14 15 15 15 15 16 17 18 18 18 19 19 20 21 22 22 22 21 20 19 18 18 19
23 19 17 17 17 17 17 18 20 22 22 23 23 21 20 20 20 21 24 27 29 31 31 32 32 32 31 32 33 33 33 32 31 26 22 23 24 22 19 18 16 16 16 17 17 17 17 17 18 19 19 20 19 19 20 21 21 21 22 22 21 18 18 18 19 18 17 17 17 18 18 17 17 17 17 19 20 20 21 22 22 21 19 17 19
26 22 20 21 21 19 18 17 19 21 22 23 24 22 21 20 19 20 22 26 28 30 32 33 33 32 32 32 33 35 35 34 31 26 23 23 23 21 19 17 16 16 16 17 17 17 16 16 18 19 20 22 22 22 22 23 23 23 23 25 25 23 22 21 19 17 14 14 15 15 15 16 17 17 17 18 20 21 22 24 24 24 23 21 19
25 22 21 24 24 21 20 19 19 21 22 23 23 24 24 24 24 23 24 26 27 28 30 32 32 32 33 32 33 36 38 36 32 27 25 24 23 21 19 17 17 17 17 17 16 14 15 17 19 21 23 24 24 23 21 22 23 23 23 24 25 24 21 20 20 18 15 15 15 15 16 18 20 20 20 20 20 20 21 23 23 24 26 26 24
24 21 20 23 24 21 19 20 21 22 23 24 24 23 24 26 26 26 26 26 26 27 28 30 31 32 33 32 32 35 38 37 33 28 26 26 24 21 19 18 19 18 18 17 15 14 16 18 19 20 21 23 24 22 20 20 21 22 22 22 22 22 21 21 23 22 19 17 18 19 19 20 21 22 23 23 23 22 22 22 22 23 26 28 28
22 20 19 20 22 23 22 21 23 25 25 25 25 24 23 24 25 26 27 28 27 26 27 29 29 30 31 31 32 34 37 36 33 30 28 27 24 22 21 21 20 19 18 16 15 16 17 18 18 19 19 20 20 20 20 21 22 23 23 22 22 22 22 23 24 24 23 22 21 20 20 20 20 21 21 21 21 20 19 19 19 21 24 26 28
21 21 20 17 19 21 21 20 23 26 26 24 24 24 24 24 25 27 29 30 29 27 26 27 28 28 28 29 30 31 32 33 32 31 29 27 25 24 23 22 21 19 18 17 16 16 17 18 19 21 21 21 22 23 23 24 25 24 23 23 23 23 24 26 26 25 25 24 22 21 21 20 19 19 18 19 17 15 15 16 17 19 22 25 26
20 21 21 20 19 18 19 21 23 25 25 24 23 24 24 25 26 27 28 29 28 27 26 27 28 29 28 27 27 28 29 30 30 31 30 28 26 26 25 23 21 19 19 20 18 17 18 20 21 22 23 24 25 27 26 26 26 27 26 25 25 26 26 27 27 26 25 23 22 21 20 18 16 16 17 18 18 18 17 18 18 17 19 22 24
21 21 21 21 20 18 18 21 23 23 23 24 24 25 25 25 26 26 25 24 25 27 28 28 29 29 28 26 26 28 29 29 29 29 30 30 29 28 27 24 22 19 20 22 21 20 21 22 23 24 24 24 25 26 27 27 28 29 29 29 28 28 28 27 26 25 24 22 21 20 17 15 15 16 17 18 20 21 20 19 20 20 21 21 22
14 18 18 17 17 16 15 17 20 22 22 23 24 24 24 25 26 26 26 26 27 28 30 29 28 28 29 28 27 28 29 29 27 28 30 32 32 30 28 25 23 22 23 24 23 23 23 23 23 25 26 26 27 27 28 29 29 30 30 31 30 30 29 27 24 22 21 20 20 18 15 13 15 17 18 20 22 23 23 22 21 23 25 26 25
8 11 12 12 13 14 14 15 18 21 21 21 22 21 21 23 25 26 27 29 28 28 29 29 28 28 29 30 29 28 29 30 29 28 29 32 33 31 28 26 25 26 27 25 24 23 22 22 24 25 24 24 25 28 30 31 32 32 32 32 32 32 30 26 22 20 20 18 16 14 12 14 18 20 22 24 25 25 27 28 25 22 23 26 28
8 9 9 10 11 12 14 15 16 17 18 18 19 20 20 22 25 26 27 28 27 28 29 30 28 27 30 31 31 29 30 31 31 30 29 30 32 31 29 27 27 28 28 26 25 23 20 21 24 25 22 19 19 21 23 25 27 29 31 32 31 29 26 24 20 17 15 14 13 12 14 17 21 23 24 26 27 28 30 29 26 22 20 21 25
9 9 10 11 11 12 14 15 15 16 16 17 18 19 19 22 24 25 27 28 26 27 28 29 28 27 29 31 30 29 30 32 31 30 29 29 29 30 30 29 29 28 27 26 24 21 19 21 23 22 20 18 17 18 19 20 20 21 23 25 26 23 20 18 16 13 12 11 11 12 15 19 21 22 24 25 26 28 27 24 22 22 21 20 20
12 10 10 12 12 11 12 13 14 14 14 16 17 18 19 22 23 23 25 27 27 27 27 26 26 27 27 29 29 28 29 30 29 28 27 27 27 27 28 29 28 26 24 22 20 19 19 21 21 18 17 18 19 19 19 18 16 15 15 15 17 17 14 12 10 10 11 13 13 15 19 21 22 23 23 24 25 27 25 21 20 21 22 21 21
14 14 14 15 15 13 12 14 14 14 13 14 16 17 20 23 22 21 21 23 25 26 26 26 26 27 28 29 29 28 27 27 26 24 22 23 23 23 23 23 22 21 20 19 18 19 20 19 17 15 16 18 20 20 19 16 15 16 15 12 11 10 9 9 10 12 14 14 14 16 20 22 22 22 22 22 23 24 23 21 19 19 20 21 22
12 15 16 16 16 14 14 16 16 15 15 15 15 18 21 22 20 18 19 21 21 22 24 25 25 25 27 28 27 26 25 24 23 20 18 18 20 20 19 18 18 18 17 17 17 18 19 18 16 16 17 18 19 20 18 16 16 16 16 14 12 10 9 11 14 15 14 13 14 16 19 20 20 19 20 20 21 22 21 20 18 16 17 19 20
15 15 16 16 16 16 17 17 16 15 15 16 16 18 20 21 19 16 17 20 21 21 22 23 22 22 24 24 23 22 21 21 20 19 18 18 19 19 19 19 19 19 18 18 18 19 19 19 19 18 17 17 18 18 17 16 17 17 15 15 16 15 13 13 13 13 13 14 14 15 16 18 18 18 19 20 21 20 19 18 16 14 14 16 17
21 22 21 20 19 20 20 19 18 16 15 16 17 18 19 19 19 17 16 18 20 21 22 22 22 23 23 22 21 21 21 21 20 18 17 17 18 19 20 20 20 20 20 20 20 20 21 21 20 18 18 18 18 18 18 17 17 17 16 15 15 16 15 15 15 13 12 13 13 12 13 15 17 18 18 19 20 20 17 15 14 12 12 13 15
22 24 24 24 23 23 21 22 22 20 18 17 17 18 18 19 18 18 17 17 19 20 21 22 24 25 24 23 24 24 23 23 23 20 18 18 18 19 20 20 20 21 22 22 23 23 23 23 22 21 20 19 18 18 18 18 17 17 16 16 15 16 16 17 17 16 15 15 15 13 14 15 17 18 18 18 19 20 17 14 12 12 11 12 14
20 22 24 25 27 27 25 23 23 23 22 22 20 19 20 19 19 18 18 18 19 21 23 24 26 27 26 25 26 27 27 26 25 23 21 21 21 21 21 21 22 24 24 24 25 26 25 24 23 22 20 18 18 18 18 18 18 17 17 17 17 17 16 16 17 17 16 15 13 12 13 14 16 16 16 16 17 20 19 14 12 12 11 12 13
20 21 21 23 26 29 30 30 29 28 27 27 26 23 21 20 19 20 19 19 19 21 22 23 24 25 26 26 26 28 30 29 27 25 24 24 24 23 23 24 25 26 26 26 26 26 25 24 24 23 21 19 19 19 18 19 19 19 18 18 18 17 16 16 17 15 13 12 12 11 11 12 12 12 14 15 17 19 18 14 12 12 11 11 12
21 20 20 20 22 25 28 29 30 31 31 30 29 26 24 23 24 22 20 19 20 20 21 21 20 20 22 25 26 27 29 30 29 29 28 28 27 26 26 26 27 27 27 27 27 26 25 24 23 22 22 22 21 21 19 19 19 20 19 19 18 17 16 17 16 14 13 15 16 14 12 13 13 13 15 18 18 17 15 14 13 12 11 11 11
22 21 20 20 21 22 24 25 25 27 29 30 29 28 29 30 29 25 21 21 21 20 19 19 18 18 20 23 26 28 29 30 31 31 29 28 27 27 27 27 27 27 28 28 28 27 25 21 19 20 21 21 20 20 20 19 19 20 19 19 19 19 18 17 16 15 15 16 17 14 14 16 17 16 15 16 16 14 13 14 13 11 10 10 9
23 22 20 19 19 19 20 23 25 24 24 25 26 28 32 33 30 26 23 23 23 23 21 20 20 21 22 22 24 27 30 31 31 31 30 30 29 28 29 29 28 28 29 28 28 26 23 19 18 20 21 20 18 17 17 18 19 20 19 20 20 21 20 19 18 18 18 17 15 13 14 16 17 14 12 14 15 13 13 14 15 12 9 9 8
21 22 21 20 19 19 19 19 21 24 24 24 23 25 28 31 29 26 25 25 24 23 24 23 22 23 23 23 24 26 28 30 30 31 31 31 31 30 30 30 31 30 30 29 28 25 22 20 21 22 22 21 20 19 17 17 18 19 19 19 21 22 22 21 20 19 20 20 19 17 16 17 16 13 11 14 16 15 14 16 17 12 8 7 6
22 23 21 20 20 20 20 20 20 22 23 25 26 26 27 27 27 27 29 29 27 24 23 24 24 24 24 25 26 26 27 28 28 29 30 30 30 30 30 31 31 31 31 32 31 28 26 24 23 24 23 22 21 22 22 20 19 19 20 20 20 20 20 19 19 18 18 19 21 20 18 17 16 14 13 15 18 16 14 15 16 12 8 6 5
22 21 19 18 18 19 20 21 21 21 20 21 23 27 28 28 26 26 28 30 30 27 24 24 25 25 25 27 27 27 27 26 26 26 27 28 30 30 30 31 30 30 30 31 31 31 29 26 24 25 25 23 22 23 23 22 21 21 21 21 21 20 20 21 21 20 19 20 21 21 19 17 16 16 16 17 18 17 15 15 14 12 9 7 6
16 16 15 16 17 18 19 20 21 21 20 19 19 22 26 29 29 28 27 28 30 29 27 26 26 25 25 26 26 26 26 25 25 26 27 27 28 29 29 28 27 26 26 27 29 30 29 26 24 24 24 24 24 23 23 23 24 23 23 23 23 23 22 23 22 22 21 21 21 22 21 18 17 17 18 19 19 18 16 14 13 12 13 12 8
11 11 13 15 17 17 18 18 18 19 20 21 20 20 22 25 30 31 30 29 28 28 28 29 28 27 26 25 25 25 25 25 25 27 28 28 28 28 26 24 23 23 23 24 24 25 26 25 24 24 24 24 24 24 23 24 24 23 23 25 25 24 23 23 23 23 22 22 22 23 22 19 18 19 19 21 21 20 16 13 13 13 14 14 10
11 11 13 16 17 17 17 17 18 18 19 21 23 22 21 22 26 28 29 28 28 28 29 30 29 27 27 26 24 24 24 25 26 27 27 28 27 24 21 21 22 23 25 24 21 20 23 24 24 23 22 23 23 24 25 25 26 25 24 25 26 25 25 24 24 23 23 23 23 23 21 19 19 19 19 21 22 20 16 14 15 14 13 13 12
14 14 15 16 18 18 18 19 21 21 19 20 22 24 24 24 25 25 26 27 28 29 31 32 31 29 27 27 26 27 26 27 27 27 26 26 25 22 20 22 25 26 26 24 21 21 25 25 23 22 23 24 24 24 25 26 27 26 26 25 25 24 25 25 25 24 23 23 22 22 22 21 21 21 20 21 21 20 17 17 18 17 14 13 14
15 15 15 16 18 19 19 20 22 23 21 19 20 23 25 26 26 26 25 25 26 28 30 32 32 31 29 27 28 29 29 29 30 30 27 26 25 23 21 22 25 26 24 21 21 23 26 26 25 25 26 27 26 25 26 26 27 27 27 27 27 26 25 25 25 24 23 23 22 23 23 24 24 23 22 21 20 19 18 18 20 19 17 16 17
16 16 16 16 17 19 19 20 22 23 22 20 20 21 23 26 28 28 27 26 26 28 30 29 29 31 31 30 29 30 30 29 30 31 30 29 29 27 24 23 24 25 24 24 24 25 26 27 27 28 28 28 27 27 28 28 29 30 29 28 28 28 27 25 24 23 23 23 24 24 25 25 24 23 22 21 20 20 19 19 19 19 17 17 17
15 16 17 17 18 19 20 20 20 21 22 21 20 21 22 24 26 28 30 30 29 29 30 31 31 31 32 32 31 29 29 29 29 30 30 30 30 29 28 27 27 26 26 27 28 27 27 27 28 29 29 30 29 29 30 30 30 30 30 29 28 28 27 26 25 23 22 22 25 26 25 23 22 21 20 21 21 21 21 20 20 19 18 18 18
15 16 17 18 19 20 20 21 22 22 22 21 20 20 21 22 24 26 27 29 29 29 29 30 32 33 33 33 32 29 28 28 29 30 30 30 30 30 30 29 27 27 27 29 29 28 27 27 28 29 30 30 30 31 32 32 31 31 32 31 29 28 26 25 24 24 23 22 25 27 26 24 23 23 22 21 22 23 24 23 21 20 20 20 20
15 16 17 19 20 20 21 22 23 23 23 22 21 20 20 21 23 24 24 25 27 29 29 28 30 32 34 34 33 31 29 29 30 30 31 31 31 31 31 29 28 28 30 32 32 29 28 28 30 31 31 31 30 31 31 32 33 34 33 32 30 29 27 25 23 24 24 23 24 27 28 27 26 25 23 21 21 24 26 25 23 21 21 20 20
16 17 18 19 20 21 21 22 23 24 24 23 23 23 22 21 21 22 22 22 24 27 28 27 26 29 32 33 32 31 32 32 31 30 30 31 31 30 29 28 28 29 31 33 33 32 32 32 33 33 33 33 32 31 31 32 33 34 34 32 31 29 28 26 24 23 24 25 24 25 27 28 27 25 22 20 20 23 26 27 25 23 22 21 20
Wind_Direction
216 216 216 219 224 228 229 227 225 226 227 227 226 227 228 228 230 230 226 229 230 228 230 234 234 233 234 234 233 231 231 235 237 236 236 238 239 242 243 246 250 253 256 261 262 263 262 260 261 262 266 270 270 269 269 269 268 265 265 263 260 261 263 263 265 269 271 271 273 278 281 279 274 266 247 236 242 241 233 235 236 231 229 229 226
216 219 222 221 223 227 231 229 228 227 227 228 227 226 227 227 230 231 229 232 233 233 234 235 233 230 232 237 237 234 236 239 242 243 241 241 242 243 245 245 246 247 249 250 251 256 261 263 265 263 261 263 266 269 268 265 266 268 270 269 267 265 263 262 266 272 276 278 279 280 282 280 275 271 258 235 235 238 230 233 238 233 229 229 230
220 223 228 227 225 227 230 230 229 228 229 229 228 227 228 228 230 231 231 234 236 237 237 236 234 231 229 234 237 237 238 238 240 245 246 245 243 243 245 246 245 243 244 249 257 262 263 264 271 274 268 263 263 265 266 266 269 271 270 270 271 270 269 270 272 276 279 280 279 279 280 279 277 275 262 234 226 238 237 237 239 236 233 232 232
229 230 232 231 229 230 230 231 231 229 229 229 229 229 229 229 230 232 233 235 238 240 241 238 237 237 233 234 238 240 238 235 238 243 246 246 244 240 241 244 246 245 245 255 263 255 246 247 253 263 268 269 269 269 269 271 273 273 271 268 271 275 278 279 279 280 281 279 277 279 279 280 279 275 267 255 246 240 234 237 241 238 235 234 235
235 237 236 234 233 233 232 230 232 232 231 230 229 230 230 229 231 232 232 233 233 237 241 238 235 237 238 238 238 238 238 235 235 239 242 244 240 233 233 237 240 240 235 234 238 236 237 242 249 255 260 262 265 268 270 271 272 272 273 273 276 279 278 277 277 278 278 277 279 283 282 280 280 277 273 266 254 241 233 235 239 238 233 233 237
241 239 237 237 236 236 235 232 232 232 231 231 231 231 230 229 230 229 227 226 227 230 238 243 241 240 240 243 241 237 237 239 237 237 239 241 238 233 232 231 229 233 232 229 235 245 248 250 254 258 262 264 267 271 271 270 270 270 273 275 277 276 275 276 278 277 275 274 278 282 281 280 283 283 279 267 255 248 240 233 232 237 235 233 235
238 237 237 240 238 236 236 235 235 235 232 232 233 233 230 226 227 231 234 234 233 230 231 236 244 245 242 240 241 239 239 242 243 239 236 238 238 234 231 229 229 234 239 239 243 250 256 262 265 267 271 274 276 277 275 273 273 273 273 274 274 274 274 277 279 278 274 273 276 279 280 282 282 281 280 272 262 255 246 235 231 235 233 229 232
230 230 232 238 239 238 238 238 237 236 234 233 232 231 229 225 226 235 241 240 237 235 233 234 239 243 241 236 237 241 240 239 240 240 237 237 239 238 238 240 244 251 257 256 255 259 265 271 275 278 279 277 274 274 276 278 278 276 274 271 270 269 269 270 273 276 276 276 278 280 280 279 278 278 280 276 268 257 248 244 242 238 231 227 232
228 224 227 235 239 240 240 241 240 236 232 229 227 227 228 229 234 242 244 242 241 239 237 234 231 233 240 240 234 237 239 235 235 237 235 231 233 239 241 239 244 255 264 261 259 263 268 272 277 280 281 279 280 284 287 286 285 283 279 274 271 269 266 265 267 270 272 274 278 282 282 279 277 281 286 283 277 268 256 253 251 240 230 226 230
234 227 226 231 235 239 243 245 246 241 234 230 227 228 230 232 238 244 244 241 241 237 230 228 226 229 238 239 231 231 233 230 229 229 227 223 223 227 228 226 231 239 247 251 257 266 274 279 284 287 288 290 295 299 299 295 291 290 288 286 283 278 272 269 267 267 268 269 271 276 283 285 284 285 288 288 285 276 263 261 261 247 230 221 223
233 229 225 227 233 242 248 247 244 239 236 237 235 234 235 235 236 241 241 236 236 236 231 227 225 228 231 229 225 226 224 223 222 220 221 224 224 226 231 237 243 249 252 256 264 272 278 284 288 289 294 299 302 304 303 299 296 296 299 301 300 291 282 276 271 268 267 267 266 266 269 279 285 287 291 297 301 300 285 273 271 261 242 227 221
225 223 223 228 233 241 247 245 237 231 235 242 240 236 236 236 236 240 240 234 233 237 235 230 227 228 227 222 222 223 224 226 225 223 225 230 231 232 236 240 245 251 256 260 265 271 277 283 285 288 293 299 303 306 308 307 306 305 304 304 305 301 295 289 284 278 275 272 269 266 263 264 266 270 279 291 298 303 297 283 277 271 259 252 243
222 221 226 234 237 240 243 239 228 224 232 242 240 236 236 236 237 240 238 235 234 237 239 236 231 230 227 222 222 224 227 231 232 231 231 229 227 230 231 233 240 249 254 257 263 269 273 276 279 283 286 286 290 298 302 301 300 301 301 298 296 295 294 293 291 289 286 282 278 273 270 266 264 261 263 269 272 278 284 284 285 282 273 272 265
225 226 231 235 233 232 236 235 226 224 232 240 238 235 237 239 240 241 239 237 237 239 241 238 234 233 230 226 225 225 228 233 234 234 234 229 226 227 229 234 244 251 253 254 259 264 267 273 278 281 284 285 285 291 297 298 294 291 293 296 298 297 293 290 287 285 287 288 287 284 278 273 272 269 266 265 264 266 272 275 278 281 277 276 274
227 232 236 232 225 225 232 236 232 229 233 237 237 237 239 241 241 240 238 237 239 242 241 238 237 238 237 233 229 227 229 232 234 237 240 238 233 230 232 238 245 250 253 257 263 268 273 277 280 282 287 289 286 286 290 293 293 291 287 285 287 292 293 290 287 284 285 286 288 290 288 281 278 276 271 269 266 263 263 263 264 268 271 272 269
219 226 231 230 227 226 229 233 233 230 230 233 238 244 244 239 235 235 235 234 235 238 238 237 238 241 242 239 232 230 232 233 234 240 244 238 234 234 234 236 239 244 251 258 265 272 276 277 277 279 284 287 288 289 290 290 289 290 288 283 279 278 276 276 279 280 282 287 290 294 297 293 287 282 276 272 270 266 261 258 254 254 257 263 265
220 225 228 231 231 224 221 226 230 230 228 228 234 241 242 237 233 233 234 232 233 234 233 234 236 240 244 243 236 233 235 235 236 241 241 233 232 233 230 229 234 242 250 258 265 272 276 279 283 288 291 290 288 289 294 295 291 289 289 287 285 281 275 275 281 281 274 278 287 293 294 290 285 281 276 270 269 268 264 259 255 252 252 253 251
220 222 226 232 235 227 220 222 230 234 231 226 228 233 234 233 231 231 231 232 235 237 234 233 235 238 241 242 239 236 235 235 237 240 237 231 229 227 224 228 235 241 248 257 266 276 280 283 288 294 296 291 285 285 293 297 294 291 289 288 287 284 276 273 279 277 263 258 263 266 270 273 274 275 276 272 269 266 263 262 260 256 253 249 245
221 221 227 236 242 238 229 224 225 233 236 230 227 229 230 230 230 231 232 232 235 236 235 234 235 235 237 240 238 235 234 235 238 237 232 229 226 222 223 228 233 240 249 257 267 276 281 283 286 292 295 291 285 285 291 296 294 290 287 285 287 289 285 279 277 277 272 267 265 266 270 275 277 279 281 281 277 271 265 264 263 260 256 251 247
234 232 231 239 246 243 239 236 228 228 236 236 231 229 230 230 232 233 232 231 230 229 230 232 231 230 234 238 237 234 233 236 237 233 229 227 223 220 223 226 230 239 248 252 260 271 279 285 287 288 293 294 288 284 287 289 288 285 282 282 286 291 293 290 286 284 282 280 279 280 282 283 283 284 285 285 282 278 274 269 263 261 261 255 248
240 234 226 235 245 237 236 242 235 229 234 237 234 234 234 233 233 234 231 227 225 224 225 227 226 227 232 237 237 235 233 234 234 230 226 226 224 221 223 226 229 237 244 247 255 267 275 280 280 280 284 288 287 286 286 285 283 280 278 280 285 290 293 293 292 288 284 281 283 287 290 292 292 292 294 293 288 281 277 274 267 260 260 258 253
236 233 229 235 244 243 241 243 239 236 237 237 235 237 239 236 235 236 232 225 221 223 225 225 223 225 232 238 240 238 234 232 231 228 226 227 225 222 224 226 228 234 241 243 249 259 266 269 274 278 281 282 281 281 282 283 282 280 280 281 284 287 290 291 291 288 284 284 288 292 296 299 296 289 287 287 284 275 263 259 262 263 261 259 255
237 238 237 236 240 252 256 245 236 236 239 239 238 239 239 239 239 240 240 236 230 227 228 227 225 226 231 238 240 238 235 233 232 229 228 230 229 226 226 226 227 232 240 242 247 257 264 270 278 284 285 282 278 277 279 280 279 278 279 281 283 285 287 288 288 286 283 283 287 292 297 298 295 291 288 284 281 279 271 259 254 256 258 259 256
232 231 232 232 234 244 252 243 237 241 247 248 247 245 243 243 243 242 242 243 241 234 228 227 227 228 232 236 237 233 230 230 233 232 231 231 231 229 228 226 228 235 242 245 251 259 267 277 288 293 291 285 279 276 276 276 275 274 274 276 278 281 284 285 285 282 278 279 284 289 293 291 287 286 284 280 276 277 278 274 265 258 256 257 255
221 222 226 232 234 237 244 246 247 255 260 256 251 249 247 246 248 246 241 237 236 234 231 229 230 232 234 236 235 232 227 227 231 234 233 231 231 232 232 229 230 237 244 250 255 261 270 282 292 295 293 289 283 277 274 273 272 271 271 272 275 277 279 281 281 275 272 276 281 282 279 279 280 281 281 282 282 280 281 282 280 271 260 255 253
222 222 226 233 233 237 247 251 250 255 258 255 250 248 246 246 250 252 249 241 233 230 233 235 235 234 235 236 237 236 232 231 234 237 236 234 233 234 233 230 231 238 246 252 256 261 271 283 289 290 291 295 295 291 287 283 279 276 274 273 273 274 274 274 272 268 270 274 273 269 270 274 279 285 287 287 286 286 286 286 286 284 276 266 258
219 212 215 224 231 240 249 252 251 252 253 253 252 249 246 246 248 250 251 248 237 229 234 239 236 231 230 232 233 233 230 229 233 236 237 236 234 233 232 231 234 240 246 249 254 261 271 278 283 286 290 296 303 307 306 300 294 290 284 276 272 270 270 268 264 262 270 274 271 269 271 272 275 283 289 291 294 297 296 291 291 297 299 292 277
229 218 211 218 230 243 252 256 259 260 256 253 253 250 245 245 249 252 252 250 244 237 236 236 231 226 223 222 221 222 224 226 229 232 232 231 230 229 230 233 237 241 245 248 252 258 265 272 279 285 290 294 297 302 303 301 301 305 302 288 274 266 261 257 252 252 263 274 272 266 264 267 276 287 296 303 306 306 302 295 295 300 303 299 292
238 232 225 224 227 235 253 266 269 268 265 261 258 255 249 250 258 263 257 249 245 244 240 231 225 225 226 222 218 219 222 225 231 235 234 231 229 227 227 231 236 240 244 246 247 253 261 269 274 280 285 290 293 297 298 298 299 301 301 298 289 273 256 254 263 273 282 282 269 258 261 270 281 293 303 311 313 310 303 296 293 294 293 291 291
255 246 242 242 242 246 263 277 277 271 270 269 263 259 259 261 267 269 259 249 247 246 240 231 226 227 229 228 228 230 231 234 238 239 232 227 227 228 229 235 242 245 245 243 243 248 256 261 262 266 273 279 282 285 286 281 279 281 281 281 282 274 254 249 258 268 278 277 265 263 271 277 283 291 299 306 311 314 308 298 292 290 287 285 283
265 259 253 251 252 255 265 278 282 275 271 272 267 262 265 269 271 268 261 254 249 244 237 232 231 230 229 230 234 237 238 240 241 234 222 218 223 229 235 242 247 249 248 245 243 246 253 259 262 266 271 272 274 277 277 269 267 270 268 262 265 268 263 255 249 247 256 268 273 279 282 278 279 289 297 301 307 312 306 297 297 297 292 289 285
266 264 258 253 253 254 258 270 277 273 270 274 273 266 264 269 274 272 263 251 245 240 234 230 230 232 232 231 231 229 228 227 226 221 217 219 227 233 239 243 246 247 245 244 245 251 258 261 261 263 267 269 270 271 270 264 260 261 258 252 253 258 261 260 257 250 249 257 265 278 284 277 278 291 299 301 308 312 303 291 297 305 302 300 297
275 272 267 261 259 257 259 265 270 268 266 270 276 273 266 263 266 269 264 251 242 237 232 228 229 232 234 231 227 225 225 225 225 225 229 235 238 238 238 240 242 242 241 242 246 254 261 262 263 266 268 270 269 266 262 259 255 253 254 254 253 253 254 257 257 252 248 250 259 274 282 278 281 291 296 296 305 313 306 291 291 301 307 310 310
284 282 278 270 262 258 261 265 267 269 268 263 263 271 275 268 261 261 261 254 243 237 234 234 237 239 240 237 230 226 226 228 231 235 240 243 243 241 239 238 237 237 239 243 248 255 260 262 266 271 270 266 265 264 260 258 256 256 256 255 255 255 255 255 255 254 253 256 264 274 279 278 279 284 286 290 303 311 310 297 287 293 303 311 315
281 283 284 277 264 258 259 262 263 266 270 266 260 261 270 275 271 262 256 254 250 244 241 243 246 246 244 241 235 229 228 231 236 240 242 242 242 240 237 235 234 234 239 244 249 255 261 265 269 271 269 264 261 259 257 254 253 253 254 255 255 254 252 252 255 257 255 255 255 257 266 273 274 274 281 291 300 306 307 298 287 291 304 310 314
283 284 284 282 272 261 258 261 262 263 266 267 263 256 257 269 275 268 256 253 254 252 250 252 255 255 249 242 236 232 231 233 237 240 242 244 244 241 237 234 235 238 242 247 251 256 262 268 270 268 266 264 259 253 251 251 250 249 250 251 251 250 247 248 252 253 249 252 255 255 254 256 258 266 281 289 291 294 295 288 282 287 300 308 313
283 286 282 278 273 262 252 251 256 259 260 261 260 256 255 263 269 265 257 254 253 251 251 249 246 247 245 238 234 233 232 235 238 241 243 245 244 242 239 238 240 243 246 250 255 259 262 267 269 266 267 268 259 247 244 246 249 252 252 250 249 248 246 244 246 246 246 252 259 258 252 250 254 263 273 278 280 282 282 281 284 289 294 300 311
276 282 282 279 278 273 262 251 247 248 250 253 254 254 255 258 260 258 256 257 253 250 249 247 243 243 242 236 233 234 234 237 239 241 242 242 241 239 239 239 240 243 246 249 254 257 261 266 269 271 274 272 257 242 241 245 247 250 251 248 249 251 249 247 247 244 241 245 251 251 249 252 258 264 264 262 265 270 271 276 284 290 289 289 298
275 280 282 283 286 285 281 269 254 246 246 246 246 248 252 254 253 253 255 257 254 251 250 249 248 249 248 241 237 235 235 237 240 242 242 244 244 243 242 242 243 245 247 248 248 248 252 259 264 268 272 268 252 242 247 252 251 251 250 247 248 251 251 251 251 248 244 246 247 246 246 253 261 267 261 253 256 260 261 265 273 282 290 291 288
277 278 278 282 285 284 283 281 274 266 260 253 245 244 249 252 253 256 257 256 252 252 253 251 248 249 250 248 246 243 240 239 241 243 244 245 245 244 244 245 246 249 251 252 251 248 246 250 254 258 262 261 249 242 248 253 252 252 254 252 250 249 248 250 254 251 246 246 249 248 245 247 254 259 254 250 256 260 256 255 263 271 281 290 284
279 279 277 279 283 282 280 280 280 281 279 269 254 247 246 247 250 257 260 256 251 250 254 255 253 251 250 251 252 252 249 245 245 246 246 245 244 244 244 245 248 252 255 257 257 254 250 248 248 249 251 252 246 242 246 250 249 249 252 253 253 252 252 253 254 251 244 244 248 250 247 243 244 248 248 249 257 263 259 252 254 257 257 265 276
278 280 284 285 284 282 280 278 279 282 284 282 272 260 252 247 247 250 256 257 254 253 255 258 257 256 255 254 252 252 251 249 249 249 247 244 243 242 243 245 249 253 255 256 256 255 252 249 247 246 245 246 246 245 245 247 247 248 250 251 251 253 255 254 253 251 247 245 245 248 251 249 244 243 245 248 254 263 263 252 242 235 234 243 255
284 282 288 291 289 287 282 278 277 278 278 277 276 273 265 257 252 250 253 256 256 256 258 258 256 255 257 256 251 247 247 249 251 249 243 239 239 241 242 245 248 250 250 250 252 251 246 243 243 244 244 245 246 246 245 246 247 248 249 248 248 249 251 253 254 252 248 244 244 247 253 253 246 242 243 245 250 258 259 244 232 230 231 234 236
294 283 283 287 290 291 289 283 280 280 279 275 271 267 265 261 256 252 252 255 256 255 256 257 254 252 255 256 250 243 241 243 246 245 239 236 238 242 247 249 248 246 245 245 242 234 229 233 241 245 244 244 245 246 247 249 248 246 246 248 249 249 248 249 251 251 247 245 245 247 248 245 240 240 243 244 249 254 249 232 228 233 230 222 223
288 279 275 278 283 286 287 285 284 286 287 281 272 265 260 257 255 250 249 253 255 253 254 257 254 250 253 255 250 242 240 241 239 237 235 234 236 242 251 255 251 245 243 244 239 227 223 229 239 245 245 246 246 246 247 249 247 245 244 245 247 248 247 246 247 249 251 248 244 241 240 239 241 245 249 249 250 252 243 226 223 228 223 215 219
294 292 285 279 278 281 282 280 281 285 291 290 283 273 264 258 254 250 248 251 253 252 255 259 256 249 250 255 252 244 242 241 234 227 224 226 229 236 245 250 248 244 243 244 242 237 233 236 243 249 250 248 246 245 247 249 250 250 250 247 243 243 246 248 246 246 247 245 239 236 238 242 245 248 251 253 253 249 238 226 225 227 222 215 221
307 305 299 288 280 278 279 279 279 283 288 291 291 286 278 268 260 254 250 249 248 247 249 253 253 249 249 253 252 246 244 242 234 227 224 226 230 235 238 237 237 241 244 242 239 239 242 245 249 251 249 245 243 243 246 249 251 253 254 251 245 241 241 243 242 242 241 238 236 237 241 244 244 245 248 251 249 243 235 229 229 230 225 219 223
305 297 292 288 282 278 278 280 282 282 285 289 291 293 289 280 269 261 255 252 251 249 247 247 248 247 248 251 250 245 244 244 240 233 230 231 233 235 237 236 236 240 243 242 241 242 244 247 249 248 246 244 245 246 245 245 248 250 251 250 249 246 243 239 236 235 237 237 236 236 238 239 239 240 245 249 246 239 234 232 231 229 225 222 223
300 294 289 285 283 280 281 284 287 286 285 286 288 291 291 284 274 267 261 258 257 256 254 251 247 245 247 251 249 243 241 245 244 239 236 235 236 236 238 241 242 239 237 240 245 247 246 245 246 246 247 248 248 246 244 243 245 247 248 248 247 247 248 244 235 227 228 234 235 233 233 236 239 241 245 247 243 237 233 233 231 228 225 225 226
300 298 292 287 284 282 281 283 288 290 288 283 282 285 290 286 277 267 262 261 258 256 256 258 253 247 247 252 251 243 239 240 242 240 238 239 239 237 237 239 241 240 237 239 243 245 244 242 243 246 249 250 249 246 245 243 243 244 245 247 246 244 245 248 241 228 222 226 231 231 232 236 241 243 242 241 238 234 233 233 231 227 224 224 225
300 298 295 290 288 287 283 281 285 293 294 287 280 281 286 289 283 271 264 264 260 252 252 258 258 250 249 253 253 245 238 236 237 239 241 241 239 238 238 239 239 239 240 243 245 245 243 242 243 246 248 248 246 245 244 243 242 242 244 246 246 243 242 245 246 236 223 220 225 230 232 234 237 239 239 237 234 233 234 234 233 229 226 224 224